Location: B?ogocice
(50.2413°N, 20.2361°E)
Time: 15:36:22
(UTC+00:00)

Cosmos 372 Rocket - Pass Details

Date: 15 June 2024
Orbit: 736 x 764 km, 74.1° (Epoch: 14 July)

Event Time Altitude Azimuth Distance (km) Brightness Sun altitude
Exits shadow 00:42:36 16° 216° (SW) 1,932 5.4 -11.6°
Maximum altitude 00:46:49 67° 296° (WNW) 830 4.2 -11.2°
Drops below altitude 10° 00:52:02 10° 20° (NNE) 2,303 8.0 -10.8°
Sets 00:54:26 0° 23° (NNE) 3,229 9.3 -10.6°
